Location: Kelshall
(52.0000°N, 0.0500°W)
Time: 17:20:44
(UTC+00:00)

NOSS 3-2 (C) - Pass Details

Date: 18 September 2020
Orbit: 795 x 1418 km, 63.4° (Epoch: 25 October)

Event Time Altitude Azimuth Distance (km) Brightness Sun altitude
Rises 20:32:28 0° 314° (NW) 3,915 8.1 -21.9°
Reaches altitude 10° 20:35:00 10° 312° (NW) 3,040 7.2 -22.2°
Maximum altitude 20:42:19 68° 232° (SW) 1,357 4.2 -23.1°
Enters shadow 20:46:12 34° 161° (SSE) 2,035 4.7 -23.6°
